RSC20JX GCLP-GCFV

Flight info

Callsign RSC20JX
Flight time 0h 30m
Altitude 12000
Route KOPUD
Aircraft AT76/M-SDFGRY/LB1

Departure

Time 2026-05-04 18:27
Airport Gran Canaria Airport (GCLP)

Arrival

Time 2026-05-04 18:58
Airport Fuerteventura Airport (GCFV)
Time Latitude Longitude Altitude Speed Heading
2026-05-04 17:58 27.93536 -15.38790 72 ft 0 kts 291°
2026-05-04 18:19 27.93537 -15.38790 78 ft 0 kts 291°
2026-05-04 18:19 27.93541 -15.38802 78 ft 4 kts 291°
2026-05-04 18:20 27.93530 -15.38863 81 ft 12 kts 205°
2026-05-04 18:20 27.93444 -15.38850 74 ft 15 kts 119°
2026-05-04 18:20 27.93394 -15.38756 71 ft 15 kts 164°
2026-05-04 18:20 27.93289 -15.38807 65 ft 18 kts 203°
2026-05-04 18:21 27.93164 -15.38864 66 ft 20 kts 203°
2026-05-04 18:21 27.93036 -15.38925 71 ft 19 kts 200°
2026-05-04 18:21 27.92911 -15.38981 71 ft 20 kts 201°
2026-05-04 18:21 27.92763 -15.39045 84 ft 27 kts 200°
2026-05-04 18:22 27.92596 -15.39121 89 ft 24 kts 203°
2026-05-04 18:22 27.92445 -15.39186 94 ft 22 kts 201°
2026-05-04 18:22 27.92301 -15.39249 96 ft 23 kts 200°
2026-05-04 18:22 27.92151 -15.39316 94 ft 24 kts 201°
2026-05-04 18:23 27.91994 -15.39385 92 ft 24 kts 200°
2026-05-04 18:23 27.91864 -15.39346 88 ft 21 kts 109°
2026-05-04 18:23 27.91814 -15.39201 81 ft 19 kts 110°
2026-05-04 18:23 27.91782 -15.39071 76 ft 15 kts 74°
2026-05-04 18:24 27.91827 -15.39030 74 ft 0 kts 24°
2026-05-04 18:27 27.91940 -15.38980 64 ft 47 kts 21°
2026-05-04 18:27 27.92426 -15.38761 54 ft 101 kts 21°
2026-05-04 18:27 27.93175 -15.38451 279 ft 118 kts 22°
2026-05-04 18:27 27.93949 -15.38105 693 ft 121 kts 21°
2026-05-04 18:28 27.94740 -15.37769 1210 ft 121 kts 21°
2026-05-04 18:28 27.95589 -15.37401 1260 ft 144 kts 22°
2026-05-04 18:28 27.96585 -15.36945 1350 ft 160 kts 22°
2026-05-04 18:28 27.97626 -15.36466 1738 ft 157 kts 22°
2026-05-04 18:29 27.98610 -15.36006 2220 ft 149 kts 22°
2026-05-04 18:29 27.99571 -15.35571 2622 ft 147 kts 21°
2026-05-04 18:29 28.00508 -15.35152 2977 ft 146 kts 21°
2026-05-04 18:29 28.01446 -15.34705 3271 ft 150 kts 22°
2026-05-04 18:30 28.03381 -15.33766 3920 ft 152 kts 22°
2026-05-04 18:30 28.04362 -15.33282 4208 ft 154 kts 22°
2026-05-04 18:30 28.05357 -15.32781 4465 ft 159 kts 22°
2026-05-04 18:31 28.06372 -15.32272 4765 ft 161 kts 22°
2026-05-04 18:31 28.07390 -15.31730 5018 ft 163 kts 33°
2026-05-04 18:31 28.07983 -15.30623 5250 ft 171 kts 78°
2026-05-04 18:31 28.08148 -15.29297 5529 ft 173 kts 79°
2026-05-04 18:32 28.08363 -15.27942 5782 ft 176 kts 78°
2026-05-04 18:32 28.08611 -15.26588 6051 ft 177 kts 77°
2026-05-04 18:32 28.08800 -15.25197 6313 ft 180 kts 83°
2026-05-04 18:32 28.08898 -15.23761 6540 ft 184 kts 85°
2026-05-04 18:33 28.08978 -15.22314 6763 ft 189 kts 86°
2026-05-04 18:33 28.09058 -15.20800 6957 ft 193 kts 86°
2026-05-04 18:33 28.09137 -15.19265 7171 ft 197 kts 86°
2026-05-04 18:33 28.09219 -15.17721 7420 ft 198 kts 86°
2026-05-04 18:34 28.09304 -15.16164 7701 ft 197 kts 86°
2026-05-04 18:34 28.09392 -15.14606 7969 ft 198 kts 86°
2026-05-04 18:34 28.09482 -15.13041 8192 ft 202 kts 86°
2026-05-04 18:34 28.09575 -15.11405 8299 ft 212 kts 86°
2026-05-04 18:35 28.09670 -15.09729 8524 ft 213 kts 86°
2026-05-04 18:35 28.09770 -15.08052 8767 ft 213 kts 86°
2026-05-04 18:35 28.09873 -15.06359 8930 ft 219 kts 86°
2026-05-04 18:35 28.09978 -15.04608 9001 ft 228 kts 86°
2026-05-04 18:36 28.10089 -15.02782 9027 ft 237 kts 86°
2026-05-04 18:36 28.10201 -15.00884 9044 ft 245 kts 86°
2026-05-04 18:36 28.10314 -14.98953 9050 ft 252 kts 86°
2026-05-04 18:36 28.10436 -14.96921 9051 ft 258 kts 86°
2026-05-04 18:37 28.10555 -14.94904 9045 ft 262 kts 86°
2026-05-04 18:37 28.10677 -14.92831 9046 ft 265 kts 86°
2026-05-04 18:37 28.10796 -14.90735 9050 ft 268 kts 86°
2026-05-04 18:37 28.10916 -14.88618 9045 ft 269 kts 86°
2026-05-04 18:38 28.11033 -14.86496 9047 ft 270 kts 86°
2026-05-04 18:38 28.11155 -14.84369 9044 ft 271 kts 86°
2026-05-04 18:38 28.11274 -14.82234 9049 ft 272 kts 86°
2026-05-04 18:38 28.11393 -14.80095 9051 ft 272 kts 86°
2026-05-04 18:39 28.11512 -14.77951 9051 ft 273 kts 86°
2026-05-04 18:39 28.11630 -14.75807 9048 ft 273 kts 86°
2026-05-04 18:39 28.11749 -14.73653 9046 ft 274 kts 86°
2026-05-04 18:39 28.11866 -14.71498 9048 ft 274 kts 86°
2026-05-04 18:40 28.11984 -14.69350 9044 ft 274 kts 86°
2026-05-04 18:40 28.12100 -14.67195 9046 ft 274 kts 86°
2026-05-04 18:40 28.12217 -14.65040 9047 ft 274 kts 86°
2026-05-04 18:40 28.12332 -14.62879 9050 ft 274 kts 86°
2026-05-04 18:41 28.12446 -14.60749 9051 ft 275 kts 86°
2026-05-04 18:41 28.12561 -14.58561 9047 ft 275 kts 86°
2026-05-04 18:41 28.12674 -14.56421 8938 ft 279 kts 86°
2026-05-04 18:41 28.12785 -14.54197 8687 ft 287 kts 86°
2026-05-04 18:42 28.12896 -14.51915 8447 ft 293 kts 86°
2026-05-04 18:42 28.13006 -14.49602 8198 ft 293 kts 87°
2026-05-04 18:42 28.13107 -14.47326 7955 ft 286 kts 87°
2026-05-04 18:42 28.13206 -14.45099 7711 ft 281 kts 86°
2026-05-04 18:43 28.13303 -14.42904 7469 ft 276 kts 87°
2026-05-04 18:43 28.13400 -14.40745 7232 ft 273 kts 86°
2026-05-04 18:43 28.13496 -14.38611 6997 ft 270 kts 87°
2026-05-04 18:43 28.13590 -14.36498 6763 ft 267 kts 86°
2026-05-04 18:44 28.13678 -14.34401 6524 ft 265 kts 86°
2026-05-04 18:44 28.13735 -14.33020 6367 ft 264 kts 86°
2026-05-04 18:44 28.13846 -14.30251 6036 ft 262 kts 87°
2026-05-04 18:44 28.13926 -14.28204 5923 ft 261 kts 86°
2026-05-04 18:45 28.14011 -14.26129 5802 ft 267 kts 87°
2026-05-04 18:45 28.14100 -14.24008 5679 ft 272 kts 87°
2026-05-04 18:45 28.14182 -14.21853 5549 ft 275 kts 87°
2026-05-04 18:45 28.14255 -14.19680 5424 ft 274 kts 86°
2026-05-04 18:46 28.14316 -14.17553 5303 ft 266 kts 87°
2026-05-04 18:46 28.14374 -14.15486 5177 ft 260 kts 86°
2026-05-04 18:46 28.14426 -14.13456 5077 ft 253 kts 84°
2026-05-04 18:46 28.14925 -14.11622 5030 ft 240 kts 61°
2026-05-04 18:47 28.15917 -14.10173 5012 ft 229 kts 41°
2026-05-04 18:47 28.17106 -14.09006 4993 ft 223 kts 34°
2026-05-04 18:47 28.18380 -14.08018 4956 ft 221 kts 32°
2026-05-04 18:47 28.19691 -14.07084 4835 ft 225 kts 29°
2026-05-04 18:48 28.21016 -14.06125 4693 ft 227 kts 32°
2026-05-04 18:48 28.22336 -14.05130 4562 ft 229 kts 32°
2026-05-04 18:48 28.23648 -14.04105 4448 ft 230 kts 34°
2026-05-04 18:48 28.24876 -14.02937 4315 ft 231 kts 38°
2026-05-04 18:49 28.26064 -14.01739 4195 ft 231 kts 40°
2026-05-04 18:49 28.27223 -14.00487 4077 ft 229 kts 50°
2026-05-04 18:49 28.27743 -13.98785 3946 ft 235 kts 88°
2026-05-04 18:49 28.27267 -13.97016 3839 ft 240 kts 123°
2026-05-04 18:50 28.25980 -13.95833 3725 ft 242 kts 157°
2026-05-04 18:50 28.24388 -13.95261 3579 ft 240 kts 163°
2026-05-04 18:50 28.22882 -13.94517 3466 ft 235 kts 138°
2026-05-04 18:50 28.21775 -13.93182 3339 ft 231 kts 121°
2026-05-04 18:51 28.21077 -13.91569 3186 ft 230 kts 109°
2026-05-04 18:51 28.20598 -13.89803 3011 ft 239 kts 91°
2026-05-04 18:51 28.20965 -13.87992 2833 ft 240 kts 56°
2026-05-04 18:51 28.22392 -13.87295 2808 ft 225 kts
2026-05-04 18:52 28.23983 -13.87273 2699 ft 233 kts
2026-05-04 18:52 28.25561 -13.87210 2589 ft 220 kts
2026-05-04 18:52 28.26982 -13.87021 2526 ft 188 kts
2026-05-04 18:52 28.28185 -13.86866 2484 ft 165 kts
2026-05-04 18:53 28.29336 -13.86828 2496 ft 164 kts
2026-05-04 18:53 28.30469 -13.86835 2484 ft 161 kts
2026-05-04 18:53 28.31571 -13.86834 2496 ft 156 kts
2026-05-04 18:53 28.32664 -13.86798 2300 ft 157 kts
2026-05-04 18:54 28.33734 -13.86753 2095 ft 150 kts
2026-05-04 18:54 28.34712 -13.86715 1919 ft 128 kts
2026-05-04 18:54 28.35532 -13.86689 1747 ft 112 kts
2026-05-04 18:54 28.36271 -13.86695 1557 ft 103 kts
2026-05-04 18:55 28.36997 -13.86698 1491 ft 105 kts
2026-05-04 18:55 28.38508 -13.86574 1201 ft 111 kts
2026-05-04 18:55 28.39296 -13.86540 1079 ft 115 kts
2026-05-04 18:56 28.40090 -13.86535 907 ft 110 kts
2026-05-04 18:56 28.40831 -13.86543 736 ft 104 kts
2026-05-04 18:56 28.41567 -13.86510 607 ft 106 kts
2026-05-04 18:56 28.42319 -13.86472 459 ft 112 kts
2026-05-04 18:57 28.43097 -13.86448 306 ft 109 kts
2026-05-04 18:57 28.43850 -13.86425 158 ft 108 kts
2026-05-04 18:57 28.44583 -13.86405 68 ft 99 kts
2026-05-04 18:57 28.45174 -13.86370 69 ft 73 kts
2026-05-04 18:58 28.45558 -13.86366 80 ft 32 kts
2026-05-04 18:58 28.45661 -13.86432 86 ft 17 kts 275°
2026-05-04 18:58 28.45663 -13.86502 89 ft 0 kts 271°
2026-05-04 18:59 28.45661 -13.86527 91 ft 5 kts 255°
2026-05-04 19:00 28.45631 -13.86580 95 ft 8 kts 260°
2026-05-04 19:00 28.45619 -13.86617 98 ft 6 kts 240°
2026-05-04 19:00 28.45616 -13.86644 95 ft 0 kts 274°